Location: Gad�tanya
(48.0500°N, 20.8500°E)
Time: 23:10:23
(UTC+00:00)

Cosmos 1606 - Pass Details

Date: 05 July 2020
Orbit: 505 x 527 km, 82.5° (Epoch: 05 August)

Event Time Altitude Azimuth Distance (km) Brightness Sun altitude
Rises 22:45:41 0° 340° (NNW) 2,664 7.6 -19.3°
Reaches altitude 10° 22:48:02 10° 328° (NNW) 1,773 6.2 -19.3°
Maximum altitude 22:51:21 27° 270° (W) 1,032 4.1 -19.2°
Enters shadow 22:52:06 25° 250° (WSW) 1,082 4.1 -19.2°
